STARLINK-11584, 63106

Orbit data source: Space-Track

STARLINK-11584, 63106 is a payload satellite owned by SpaceX/Seattle (US) in LEO that was launched on Thu, 27 Feb 2025 UTC via an FALCON 9 launch vehicle from the Air Force Eastern Test Range (AFETR). Payload-class satellites include a variety of spacecraft equipped with specific instruments for various scientific and technological missions. These include communications satellites like Starlink; space stations such as the ISS; scientific satellites like the Hubble; Earth observation satellites from companies like Planet Labs, Umbra, and HawkEye 360; GPS; miniature CubeSats for education and research; and military/defense satellites.

Loading next visibility...
Identifier
63106, 2025-039C
Orbit
LEO
Country
Flag of USUS
Related business
Manufacturer
SpaceX/Seattle
Mission
Operational Commercial Communications
Bus & Motor
STARLINK V2MD, Unknown motor
Mass
960 kg wet, ~910 kg dry
Launch date (UTC)
2025-02-27 (1 year ago)
Launch vehicle
FALCON 9
Launch site
Air Force Eastern Test Range (AFETR)
Object type
Payload
Rocket body
Debris
Shape & HBR
Box + 2 Pan, 18.1 m
Radar Cross Section
36.964 m², Large (>1 m²)

Expand to show TLE details & history
Last TLE update: 21 hours ago

TLE from 21 hours ago
0 STARLINK-11584
1 63106U 25039C   26207.18817771  .00138097  00000-0  10594-2 0  9991
2 63106  43.0004 122.3852 0001838 260.4531  99.6129 15.70896213 81392
Epoch: 2026-07-26T04:30Z
TLE epoch observation values (Epoch: 2026-07-26T04:30:58.554Z)
Latitude
-0°
Longitude
110.75153°
Altitude
356.312 km
Speed
7.697 km/s
True Right ascension
08h 09m 32s
True Declination
0° 00' 00"
Sunlit
Object was in daylight at epoch
Visualization orbit readout
Latitude
Unknown
Longitude
Unknown
Altitude
Unknown
Speed
Unknown
Apparent Right ascension
Unknown
Apparent Declination
Unknown
Sunlit
N/A
Visualization observer readout
Local Sidereal Time
14:32:06
Azimuth
Unknown
Elevation
Unknown
Doppler factor
Unknown
Orbital elements
Apogee altitude
359.554 km
Perigee altitude
357.078 km
Semi-major axis
6,736.453 km
Eccentricity
0.00018
Inclination
43.0004°
RAAN
122.3852°
Arg. of periapsis
260.4531°
True anomaly
99.63367°
Mean anomaly
99.6129°
Eccentric anomaly
99.62328°
Mean motion
3.92551 °/min
Orbital period
91.71 mins
BSTAR
0.0010594
Loading maneuver chart data...
Computing Atmospheric mass density...
Loading historical data...
Loading historical data...
Loading historical data...
Loading historical data...
Loading historical data...
Loading historical data...
Loading historical data...

Documentation

Showing up to 5 results
|